EW4431 Weather Reports


Display with metric or nautical units.
time (UTC)temp
F
wind
direction
speed
MPH
gust
MPH
rain 1hr
in
rain 24hr
in
rain mn
in
humidity
%
barometer
mb
20260508144600 77 48 2.0 6.0 0.00 0.00 0.00 26 1010.1
20260508144500 77 116 3.0 6.0 0.00 0.00 0.00 26 1010.1
20260508143101 76 133 1.0 4.0 0.00 0.00 0.00 29 1010.0
20260508141601 76 101 1.0 3.0 0.00 0.00 0.00 29 1009.9
20260508140058 74 116 0.0 1.0 0.00 0.00 0.00 33 1009.9
20260508134527 73 116 0.0 1.0 0.00 0.00 0.00 33 1009.6
20260508133031 71 117 0.0 1.0 0.00 0.00 0.00 34 1009.3
20260508131522 0 0.0 0.0 0.00 0.00 0.00 1009.3
20260508130021 0 0.0 0.0 0.00 0.00 0.00 1008.9
20260508124513 0 0.0 0.0 0.00 0.00 0.00 1008.7
20260508123009 0 0.0 0.0 0.00 0.00 0.00 1008.5
20260508121538 0 0.0 0.0 0.00 0.00 0.00 1008.4
20260508120030 0 0.0 0.0 0.00 0.00 0.00 1008.4
20260508114524 0 0.0 0.0 0.00 0.00 0.00 1008.4
20260508113021 0 0.0 0.0 0.00 0.00 0.00 1008.3
20260508111517 70 141 0.0 5.0 0.00 0.00 0.00 31 1008.3
20260508110017 71 130 1.0 3.0 0.00 0.00 0.00 31 1008.3
20260508104514 72 125 1.0 4.0 0.00 0.00 0.00 30 1008.3
20260508103017 72 115 1.0 4.0 0.00 0.00 0.00 30 1008.2
20260508101510 72 130 1.0 6.0 0.00 0.00 0.00 29 1008.1
20260508100009 73 136 2.0 5.0 0.00 0.00 0.00 29 1008.0
20260508094542 73 126 3.0 7.0 0.00 0.00 0.00 28 1007.9
20260508093039 73 143 3.0 7.0 0.00 0.00 0.00 27 1008.0
20260508091507 73 96 2.0 6.0 0.00 0.00 0.00 26 1008.0
20260508090006 73 168 3.0 6.0 0.00 0.00 0.00 24 1008.0
20260508084502 72 80 3.0 6.0 0.00 0.00 0.00 21 1008.2
20260508083103 72 153 1.0 5.0 0.00 0.00 0.00 20 1008.2
20260508081634 72 75 2.0 5.0 0.00 0.00 0.00 21 1008.3
20260508080059 73 88 1.0 2.0 0.00 0.00 0.00 21 1008.2
20260508074558 73 132 0.0 3.0 0.00 0.00 0.00 21 1008.2
20260508073056 72 105 0.0 1.0 0.00 0.00 0.00 23 1008.1
20260508071557 73 105 0.0 1.0 0.00 0.00 0.00 23 1007.9
20260508064554 73 124 0.0 1.0 0.00 0.00 0.00 25 1007.8
20260508063024 73 110 0.0 1.0 0.00 0.00 0.00 25 1007.9
20260508061525 72 245 0.0 0.0 0.00 0.00 0.00 27 1007.9
20260508060019 72 245 0.0 0.0 0.00 0.00 0.00 27 1007.9
20260508054520 72 245 0.0 0.0 0.00 0.00 0.00 26 1007.9
20260508053015 72 245 0.0 0.0 0.00 0.00 0.00 25 1007.7
20260508051521 73 245 0.0 0.0 0.00 0.00 0.00 22 1007.6
20260508050010 74 245 0.0 0.0 0.00 0.00 0.00 21 1007.5
20260508044505 75 245 0.0 0.0 0.00 0.00 0.00 20 1007.5
20260508043002 77 245 0.0 0.0 0.00 0.00 0.00 18 1007.3
20260508041557 79 245 0.0 0.0 0.00 0.00 0.00 17 1007.2
20260508040053 81 245 0.0 1.0 0.00 0.00 0.00 15 1007.1
20260508034554 81 245 0.0 1.0 0.00 0.00 0.00 16 1006.9
20260508033044 83 245 0.0 1.0 0.00 0.00 0.00 14 1006.6
20260508031542 84 242 0.0 1.0 0.00 0.00 0.00 14 1006.4
20260508030044 85 263 0.0 2.0 0.00 0.00 0.00 13 1006.3
20260508024540 86 269 0.0 5.0 0.00 0.00 0.00 12 1006.0
20260508023002 87 265 0.0 4.0 0.00 0.00 0.00 11 1005.9
20260508021600 88 277 1.0 5.0 0.00 0.00 0.00 11 1005.8
20260508020059 89 296 2.0 5.0 0.00 0.00 0.00 10 1005.6
20260508014557 91 285 2.0 6.0 0.00 0.00 0.00 10 1005.5
20260508013056 92 242 2.0 8.0 0.00 0.00 0.00 9 1005.4
20260508011605 93 278 2.0 7.0 0.00 0.00 0.00 9 1005.4
20260508010053 93 281 2.0 8.0 0.00 0.00 0.00 9 1005.3
20260508004554 94 290 0.0 5.0 0.00 0.00 0.00 10 1005.2
20260508003050 94 261 2.0 7.0 0.00 0.00 0.00 9 1005.3
20260508001549 95 243 3.0 7.0 0.00 0.00 0.00 10 1005.2
20260508000045 95 281 2.0 7.0 0.00 0.00 0.00 8 1005.5
20260507234554 95 283 1.0 7.0 0.00 0.00 0.00 8 1005.4
20260507233044 95 244 3.0 6.0 0.00 0.00 0.00 8 1005.5
20260507231548 96 238 0.0 2.0 0.00 0.00 0.00 8 1005.5
20260507230035 95 146 1.0 0.0 0.00 0.00 0.00 7 1005.7
20260507224536 94 206 3.0 7.0 0.00 0.00 0.00 8 1005.9
20260507223030 94 278 1.0 5.0 0.00 0.00 0.00 9 1006.1
20260507221531 94 66 0.0 8.0 0.00 0.00 0.00 8 1006.3
20260507220025 94 231 1.0 4.0 0.00 0.00 0.00 8 1006.5
20260507214520 95 275 2.0 7.0 0.00 0.00 0.00 9 1006.8
20260507213025 94 276 3.0 7.0 0.00 0.00 0.00 9 1007.0
20260507211515 94 353 2.0 5.0 0.00 0.00 0.00 10 1007.2
20260507210042 93 282 1.0 8.0 0.00 0.00 0.00 10 1007.5
20260507204540 92 32 0.0 2.0 0.00 0.00 0.00 11 1007.8
20260507203007 92 285 2.0 6.0 0.00 0.00 0.00 10 1007.9
20260507201505 92 136 1.0 6.0 0.00 0.00 0.00 10 1008.0
20260507200045 93 279 1.0 4.0 0.00 0.00 0.00 10 1008.4
20260507194530 91 269 0.0 7.0 0.00 0.00 0.00 16 1008.7
20260507193027 91 78 1.0 7.0 0.00 0.00 0.00 10 1009.0
20260507191522 90 262 1.0 5.0 0.00 0.00 0.00 12 1009.3
20260507190019 91 129 0.0 7.0 0.00 0.00 0.00 11 1009.6
20260507184516 89 274 0.0 6.0 0.00 0.00 0.00 17 1009.7
20260507183029 89 271 0.0 5.0 0.00 0.00 0.00 14 1009.9
20260507181508 89 280 0.0 3.0 0.00 0.00 0.00 13 1010.0
20260507180005 87 273 1.0 7.0 0.00 0.00 0.00 13 1010.3
20260507174504 87 271 1.0 5.0 0.00 0.00 0.00 14 1010.4
20260507173001 86 219 0.0 4.0 0.00 0.00 0.00 16 1010.6
20260507171611 86 210 0.0 5.0 0.00 0.00 0.00 17 1010.7
20260507170056 85 126 1.0 6.0 0.00 0.00 0.00 17 1010.7
20260507164604 84 143 2.0 5.0 0.00 0.00 0.00 18 1011.0
20260507163051 83 217 1.0 4.0 0.00 0.00 0.00 20 1011.0
20260507161550 82 280 0.0 5.0 0.00 0.00 0.00 19 1011.1
20260507160050 82 219 0.0 4.0 0.00 0.00 0.00 20 1011.4
20260507154547 81 77 0.0 4.0 0.00 0.00 0.00 19 1011.4
20260507153049 79 120 0.0 5.0 0.00 0.00 0.00 21 1011.4
20260507151545 78 68 0.0 4.0 0.00 0.00 0.00 22 1011.4
20260507150043 76 330 2.0 7.0 0.00 0.00 0.00 23 1011.4